TimeCEST,TemperatureF,Dew PointF,Humidity,Sea Level PressureIn,VisibilityMPH,Wind Direction,Wind SpeedMPH,Gust SpeedMPH,PrecipitationIn,Events,Conditions,WindDirDegrees,DateUTC
12:20 AM,51.8,50.0,94,29.74,6.2,SSW,4.6,-,N/A,,Mostly Cloudy,200,2012-10-03 22:20:00
12:50 AM,51.8,50.0,94,29.77,6.2,SSW,5.8,-,N/A,,Overcast,200,2012-10-03 22:50:00
1:20 AM,51.8,50.0,94,29.74,6.2,SSW,5.8,-,N/A,,Partly Cloudy,200,2012-10-03 23:20:00
1:50 AM,51.8,50.0,94,29.74,6.2,SSW,5.8,-,N/A,Rain,Light Rain,210,2012-10-03 23:50:00
2:00 AM,51,50,96,29.76,11,SSW,4.5,,,Rain,Light Rain,210,2012-10-04 00:00:00
2:20 AM,51.8,50.0,94,29.74,6.2,SSW,4.6,-,N/A,Rain,Light Rain,200,2012-10-04 00:20:00
2:50 AM,51.8,50.0,94,29.74,6.2,South,5.8,-,N/A,Rain,Light Rain,180,2012-10-04 00:50:00
3:20 AM,51.8,50.0,94,29.71,4.3,South,4.6,-,N/A,Rain,Light Rain,190,2012-10-04 01:20:00
3:50 AM,51.8,50.0,94,29.71,6.2,SSW,4.6,-,N/A,Rain,Light Rain,200,2012-10-04 01:50:00
4:20 AM,51.8,50.0,94,29.71,4.3,South,3.5,-,N/A,Rain,Rain,190,2012-10-04 02:20:00
4:50 AM,51.8,51.8,100,29.68,3.7,Variable,2.3,-,N/A,Rain,Rain,0,2012-10-04 02:50:00
5:00 AM,52,51,95,29.70,3,South,2.2,,,Rain,Light Rain,190,2012-10-04 03:00:00
5:20 AM,51.8,51.8,100,29.68,3.7,SSE,3.5,-,N/A,Rain,Light Rain,160,2012-10-04 03:20:00
5:50 AM,51.8,51.8,100,29.68,4.3,South,4.6,-,N/A,Rain,Light Rain,170,2012-10-04 03:50:00
6:20 AM,51.8,51.8,100,29.65,3.1,South,4.6,-,N/A,,Mostly Cloudy,190,2012-10-04 04:20:00
6:50 AM,51.8,51.8,100,29.65,2.8,Variable,2.3,-,N/A,Rain,Rain,0,2012-10-04 04:50:00
7:20 AM,51.8,50.0,94,29.65,-9999.0,West,2.3,-,N/A,Rain,Rain,280,2012-10-04 05:20:00
7:50 AM,51.8,50.0,94,29.65,3.7,WNW,9.2,-,N/A,Rain,Rain,290,2012-10-04 05:50:00
8:00 AM,51,49,92,29.68,4,WNW,8.9,,,Rain,Rain,290,2012-10-04 06:00:00
8:20 AM,51.8,50.0,94,29.65,4.3,NNW,4.6,-,N/A,Rain,Rain,330,2012-10-04 06:20:00
8:50 AM,50.0,48.2,94,29.68,6.2,West,6.9,-,N/A,Rain,Light Rain,280,2012-10-04 06:50:00
9:20 AM,50.0,48.2,94,29.68,5.6,Variable,2.3,-,N/A,Rain,Light Rain,0,2012-10-04 07:20:00
9:50 AM,50.0,48.2,94,29.68,6.2,West,5.8,-,N/A,Rain,Light Rain,260,2012-10-04 07:50:00
10:20 AM,50.0,48.2,94,29.71,6.2,West,5.8,-,N/A,,Partly Cloudy,260,2012-10-04 08:20:00
10:50 AM,50.0,48.2,94,29.71,6.2,West,8.1,-,N/A,,Partly Cloudy,260,2012-10-04 08:50:00
11:00 AM,50,48,89,29.73,9,West,8.9,,,,Partly Cloudy,260,2012-10-04 09:00:00
11:20 AM,50.0,48.2,94,29.74,6.2,West,9.2,-,N/A,,Mostly Cloudy,260,2012-10-04 09:20:00
11:50 AM,51.8,48.2,88,29.74,6.2,West,8.1,-,N/A,,Mostly Cloudy,270,2012-10-04 09:50:00
12:20 PM,53.6,48.2,82,29.77,6.2,West,10.4,-,N/A,,Partly Cloudy,270,2012-10-04 10:20:00
12:50 PM,55.4,50.0,82,29.77,6.2,West,10.4,-,N/A,,Partly Cloudy,260,2012-10-04 10:50:00
1:20 PM,57.2,46.4,67,29.80,6.2,West,10.4,-,N/A,,Scattered Clouds,270,2012-10-04 11:20:00
1:50 PM,57.2,46.4,67,29.80,6.2,West,12.7,-,N/A,,Scattered Clouds,260,2012-10-04 11:50:00
2:00 PM,57,47,61,29.82,16,West,13.4,,,,Partly Cloudy,260,2012-10-04 12:00:00
2:20 PM,57.2,42.8,59,29.83,6.2,West,13.8,-,N/A,,Scattered Clouds,280,2012-10-04 12:20:00
2:50 PM,59.0,44.6,59,29.83,6.2,West,15.0,-,N/A,,Scattered Clouds,260,2012-10-04 12:50:00
3:20 PM,59.0,41.0,51,29.83,6.2,West,12.7,24.2,N/A,,Scattered Clouds,270,2012-10-04 13:20:00
3:50 PM,57.2,39.2,51,29.86,6.2,West,15.0,-,N/A,,Scattered Clouds,270,2012-10-04 13:50:00
4:20 PM,59.0,41.0,51,29.89,6.2,West,15.0,-,N/A,,Scattered Clouds,280,2012-10-04 14:20:00
4:50 PM,59.0,42.8,55,29.89,6.2,West,11.5,-,N/A,,Scattered Clouds,280,2012-10-04 14:50:00
5:00 PM,59,42,42,29.90,22,West,11.2,,,,Partly Cloudy,280,2012-10-04 15:00:00
5:20 PM,59.0,42.8,55,29.89,6.2,WSW,15.0,-,N/A,,Scattered Clouds,250,2012-10-04 15:20:00
5:50 PM,59.0,42.8,55,29.92,6.2,West,11.5,-,N/A,,Scattered Clouds,270,2012-10-04 15:50:00
6:20 PM,57.2,42.8,59,29.92,6.2,West,8.1,-,N/A,,Partly Cloudy,260,2012-10-04 16:20:00
6:50 PM,57.2,42.8,59,29.92,6.2,WSW,8.1,-,N/A,,Partly Cloudy,250,2012-10-04 16:50:00
7:20 PM,55.4,42.8,63,29.92,6.2,SW,5.8,-,N/A,,Partly Cloudy,230,2012-10-04 17:20:00
7:50 PM,55.4,44.6,67,29.92,-9999.0,South,4.6,-,N/A,,Clear,190,2012-10-04 17:50:00
8:00 PM,55,44,56,29.94,28,South,4.5,,,,Scattered Clouds,190,2012-10-04 18:00:00
8:20 PM,53.6,44.6,72,29.95,-9999.0,SSW,4.6,-,N/A,,Clear,200,2012-10-04 18:20:00
8:50 PM,53.6,44.6,72,29.95,-9999.0,SSW,5.8,-,N/A,,Clear,200,2012-10-04 18:50:00
9:20 PM,51.8,42.8,71,29.92,-9999.0,SSW,6.9,-,N/A,,Clear,200,2012-10-04 19:20:00
9:50 PM,51.8,44.6,76,29.95,-9999.0,SSW,6.9,-,N/A,,Clear,200,2012-10-04 19:50:00
10:20 PM,53.6,44.6,72,29.95,-9999.0,SSW,8.1,-,N/A,,Clear,210,2012-10-04 20:20:00
10:50 PM,53.6,44.6,72,29.95,-9999.0,SSW,6.9,-,N/A,,Clear,210,2012-10-04 20:50:00
11:00 PM,53,44,64,29.96,22,SSW,6.7,,,,Clear,210,2012-10-04 21:00:00
11:20 PM,51.8,44.6,76,29.95,-9999.0,South,5.8,-,N/A,,Clear,190,2012-10-04 21:20:00
11:50 PM,51.8,44.6,76,29.95,-9999.0,South,6.9,-,N/A,,Clear,180,2012-10-04 21:50:00